Weather Roundup
Issued by NWS Chicago, IL

Home | Current Version | Previous Version | Text Only | Print | Product List | Glossary On
Versions: 1 2 3 4 5 6 7 8 9 10 11 12 13 14 15 16 17 18 19 20 21 22 23 24 25 26 27 28 29 30 31 32 33 34 35 36 37 38 39 40 41 42 43 44 45 46 47 48 49 50
000
NZUS59 KLOT 252008
HRRLOT

CHICAGO AREA WEATHER ROUNDUP
NATIONAL WEATHER SERVICE CHICAGO/ROMEOVILLE IL
200 PM CST TUE FEB 25 2020

NOTE: "FAIR" INDICATES FEW OR NO CLOUDS BELOW 12,000 FEET WITH NO
SIGNIFICANT WEATHER AND/OR OBSTRUCTIONS TO VISIBILITY.

* THESE STATIONS ARE NOT UNDER NWS QUALITY CONTROL. THEY ALSO MAY NOT
  REPORT WEATHER SUCH AS PRECIPITATION OR FOG.

ILZ005-006-012>014-019>023-252100-
NORTHEAST ILLINOIS

CITY           SKY/WX    TMP DP  RH WIND       PRES   REMARKS
OHARE          CLOUDY    37  29  72 N22G35    29.95S
MIDWAY         CLOUDY    37  30  75 NE23G32   29.95R
AURORA         CLOUDY    38  27  64 N21G28    29.95S
LANSING*       LGT SNOW  34  32  93 N14       29.93S WCI  24
JOLIET*        LGT RAIN  39  32  75 NE14G22   29.94S
WAUKEGAN       CLOUDY    36  28  73 N13G35    29.98S
DUPAGE AIRPORT CLOUDY    37  28  70 N20G30    29.95R
WHEELING       CLOUDY    37  29  72 N20G32    29.99R
KANKAKEE*      CLOUDY    34  33  98 NE16G22   29.92R WCI  23
MORRIS*        DRIZZLE   39  31  74 N9G18     29.93S
LEWIS AIRPORT* DRIZZLE   37  31  80 NE22      29.94S
NORTHERLY ISL    N/A     35  31  85 MISG        N/A
NORTHERLY IS   NOT AVBL
NORTHERLY ISL    N/A     35  31  85 MISG        N/A
$$

WIZ051-052-058>065-066-070>072-252100-
SOUTHEAST WISCONSIN

CITY           SKY/WX    TMP DP  RH WIND       PRES   REMARKS
MILWAUKEE      CLOUDY    35  28  75 N21G39    30.02S WCI  24
KENOSHA*       CLOUDY    37  29  72 N21G37    30.00S
RACINE*        CLOUDY    36  28  73 N25G40    30.02S
BURLINGTON     CLOUDY    35  28  76 N16G28    30.02R WCI  25
WAUKESHA       CLOUDY    34  25  69 N14G29    30.04S WCI  24
WEST BEND      PTSUNNY   32  27  80 NE17G25   30.06S WCI  21
$$

INZ001>003-010>013-019-020-252100-
NORTHWEST INDIANA

CITY           SKY/WX    TMP DP  RH WIND       PRES   REMARKS
GARY*          LGT SNOW  36  32  87 N14       29.94S
MICHIGAN CITY* NOT AVBL
RENSSELAER*    NOT AVBL
VALPARAISO     LGT SNOW  34  31  88 N12       29.90S VSB 1   WCI  25
$$

LMZ740>746-252100-
SOUTHERN LAKE MICHIGAN

STATION/POSITION TIME  SKY/WX   TEMP WIND        PRES    VSBY
                                AIR  DIR/SP/G
                 (UTC)          (F)  (DEG/KT/KT) (MB)    (MI)
HARRISON CRIB    1940            35  360/ 22/ 24   N/A
NORTHERLY ISL    2000            35  350/ 14/ 20   N/A
CALUMET HARBOR   1930            35  350/ 15/ 20 1013.6R
BURNS HARBOR     NOT AVBL
MICHIGAN CITY    1940            33   20/ 23/ 25   N/A
$$

ABBREVIATIONS USED IN REMARKS
   TC - TEMPERATURE IN CELSIUS
  WCI - WIND CHILL INDEX
   HX - HEAT INDEX
  VSB - VISIBILITY
$$



USA.gov is the U.S. government's official web portal to all federal, state and local government web resources and services.
  • National Weather Service
  • El Paso, TX Weather Forecast Office
  • 7955 Airport Rd
  • Santa Teresa, NM 88008
  • (575) 589-4088
  • Page Author: EPZ Webmaster
  • Web Master's E-mail: sr-epz.webmaster@noaa.gov
  • Page last modified: Feb 14th, 2020 19:38 UTC